Time,TemperatureF,DewpointF,PressureIn,WindDirection,WindDirectionDegrees,WindSpeedMPH,WindSpeedGustMPH,Humidity,HourlyPrecipIn,Conditions,Clouds,dailyrainin,SoftwareType,DateUTC
2013-02-16 00:02:00,18.0,-99.9,-100.00,WNW,294,11.0,19.0,-999,0.00,,,0.00,,2013-02-16 06:02:00,
2013-02-16 00:11:00,18.0,-99.9,-100.00,WNW,294,11.0,19.0,-999,0.00,,,0.00,,2013-02-16 06:11:00,
2013-02-16 00:22:00,18.0,-99.9,-100.00,WNW,294,11.0,19.0,-999,0.00,,,0.00,,2013-02-16 06:22:00,
2013-02-16 00:32:00,18.0,-99.9,-100.00,NW,323,5.0,12.0,-999,0.00,,,0.00,,2013-02-16 06:32:00,
2013-02-16 00:42:00,18.0,-99.9,-100.00,NW,323,5.0,12.0,-999,0.00,,,0.00,,2013-02-16 06:42:00,
2013-02-16 00:52:00,18.0,-99.9,-100.00,NW,323,5.0,12.0,-999,0.00,,,0.00,,2013-02-16 06:52:00,
2013-02-16 01:02:00,17.0,-99.9,-100.00,NNW,329,11.0,15.0,-999,0.00,,,0.00,,2013-02-16 07:02:00,
2013-02-16 01:11:00,17.0,-99.9,-100.00,NNW,329,11.0,15.0,-999,0.00,,,0.00,,2013-02-16 07:11:00,
2013-02-16 01:22:00,17.0,-99.9,-100.00,NNW,329,11.0,15.0,-999,0.00,,,0.00,,2013-02-16 07:22:00,
2013-02-16 01:32:00,16.0,-99.9,-100.00,NW,318,9.0,16.0,-999,0.00,,,0.00,,2013-02-16 07:32:00,
2013-02-16 01:42:00,16.0,-99.9,-100.00,NW,318,9.0,16.0,-999,0.00,,,0.00,,2013-02-16 07:42:00,
2013-02-16 01:53:00,16.0,-99.9,-100.00,NW,318,9.0,16.0,-999,0.00,,,0.00,,2013-02-16 07:53:00,
2013-02-16 02:02:00,16.0,-99.9,-100.00,NW,324,7.0,10.0,-999,0.00,,,0.00,,2013-02-16 08:02:00,
2013-02-16 02:11:00,16.0,-99.9,-100.00,NW,324,7.0,10.0,-999,0.00,,,0.00,,2013-02-16 08:11:00,
2013-02-16 02:22:00,16.0,-99.9,-100.00,NW,324,7.0,10.0,-999,0.00,,,0.00,,2013-02-16 08:22:00,
2013-02-16 02:30:00,15.0,-99.9,-100.00,NNW,327,4.0,6.0,-999,0.00,,,0.00,,2013-02-16 08:30:00,
2013-02-16 02:32:00,16.0,-99.9,-100.00,NW,316,5.0,11.0,-999,0.00,,,0.00,,2013-02-16 08:32:00,
2013-02-16 02:42:00,16.0,-99.9,-100.00,NW,316,5.0,11.0,-999,0.00,,,0.00,,2013-02-16 08:42:00,
2013-02-16 02:52:00,16.0,-99.9,-100.00,NW,316,5.0,11.0,-999,0.00,,,0.00,,2013-02-16 08:52:00,
2013-02-16 03:02:00,15.0,-99.9,-100.00,NNW,327,4.0,6.0,-999,0.00,,,0.00,,2013-02-16 09:02:00,
2013-02-16 03:11:00,15.0,-99.9,-100.00,NNW,327,4.0,6.0,-999,0.00,,,0.00,,2013-02-16 09:11:00,
2013-02-16 03:22:00,15.0,-99.9,-100.00,NNW,327,4.0,6.0,-999,0.00,,,0.00,,2013-02-16 09:22:00,
2013-02-16 04:32:00,14.0,-99.9,-100.00,WNW,284,3.0,8.0,-999,0.00,,,0.00,,2013-02-16 10:32:00,
2013-02-16 04:42:00,14.0,-99.9,-100.00,WNW,284,3.0,8.0,-999,0.00,,,0.00,,2013-02-16 10:42:00,
2013-02-16 04:52:00,14.0,-99.9,-100.00,WNW,284,3.0,8.0,-999,0.00,,,0.00,,2013-02-16 10:52:00,
2013-02-16 05:02:00,14.0,-99.9,-100.00,NW,306,4.0,8.0,-999,0.00,,,0.00,,2013-02-16 11:02:00,
2013-02-16 05:11:00,14.0,-99.9,-100.00,NW,306,4.0,8.0,-999,0.00,,,0.00,,2013-02-16 11:11:00,
2013-02-16 05:22:00,14.0,-99.9,-100.00,NW,306,4.0,8.0,-999,0.00,,,0.00,,2013-02-16 11:22:00,
2013-02-16 05:32:00,14.0,-99.9,-100.00,WNW,291,4.0,9.0,-999,0.00,,,0.00,,2013-02-16 11:32:00,
2013-02-16 05:42:00,14.0,-99.9,-100.00,WNW,291,4.0,9.0,-999,0.00,,,0.00,,2013-02-16 11:42:00,
2013-02-16 05:52:00,14.0,-99.9,-100.00,WNW,291,4.0,9.0,-999,0.00,,,0.00,,2013-02-16 11:52:00,
2013-02-16 06:02:00,14.0,-99.9,-100.00,WNW,291,4.0,9.0,-999,0.00,,,0.00,,2013-02-16 12:02:00,
2013-02-16 06:12:00,14.0,-99.9,-100.00,WNW,291,4.0,9.0,-999,0.00,,,0.00,,2013-02-16 12:12:00,
2013-02-16 06:22:00,14.0,-99.9,-100.00,WNW,291,4.0,9.0,-999,0.00,,,0.00,,2013-02-16 12:22:00,
2013-02-16 06:30:00,14.0,-99.9,-100.00,West,260,4.0,9.0,-999,0.00,,,0.00,,2013-02-16 12:30:00,
2013-02-16 06:32:00,14.0,-99.9,-100.00,West,263,4.0,6.0,-999,0.00,,,0.00,,2013-02-16 12:32:00,
2013-02-16 06:42:00,14.0,-99.9,-100.00,West,263,4.0,6.0,-999,0.00,,,0.00,,2013-02-16 12:42:00,
2013-02-16 06:52:00,14.0,-99.9,-100.00,West,263,4.0,6.0,-999,0.00,,,0.00,,2013-02-16 12:52:00,
2013-02-16 07:02:00,14.0,-99.9,-100.00,West,260,4.0,9.0,-999,0.00,,,0.00,,2013-02-16 13:02:00,
2013-02-16 07:12:00,14.0,-99.9,-100.00,West,260,4.0,9.0,-999,0.00,,,0.00,,2013-02-16 13:12:00,
2013-02-16 07:22:00,14.0,-99.9,-100.00,West,260,4.0,9.0,-999,0.00,,,0.00,,2013-02-16 13:22:00,
2013-02-16 08:01:00,14.0,-99.9,-100.00,West,260,4.0,7.0,-999,0.00,,,0.00,,2013-02-16 14:01:00,
2013-02-16 08:11:00,14.0,-99.9,-100.00,West,260,4.0,7.0,-999,0.00,,,0.00,,2013-02-16 14:11:00,
2013-02-16 08:22:00,14.0,-99.9,-100.00,West,260,4.0,7.0,-999,0.00,,,0.00,,2013-02-16 14:22:00,
2013-02-16 08:33:00,15.0,-99.9,-100.00,West,262,5.0,9.0,-999,0.00,,,0.00,,2013-02-16 14:33:00,
2013-02-16 08:42:00,15.0,-99.9,-100.00,West,262,5.0,9.0,-999,0.00,,,0.00,,2013-02-16 14:42:00,
2013-02-16 08:52:00,15.0,-99.9,-100.00,West,262,5.0,9.0,-999,0.00,,,0.00,,2013-02-16 14:52:00,
2013-02-16 09:02:00,16.0,-99.9,-100.00,West,273,5.0,10.0,-999,0.00,,,0.00,,2013-02-16 15:02:00,
2013-02-16 09:11:00,16.0,-99.9,-100.00,West,273,5.0,10.0,-999,0.00,,,0.00,,2013-02-16 15:11:00,
2013-02-16 09:22:00,16.0,-99.9,-100.00,West,273,5.0,10.0,-999,0.00,,,0.00,,2013-02-16 15:22:00,
2013-02-16 09:32:00,17.0,-99.9,-100.00,WSW,255,5.0,10.0,-999,0.00,,,0.00,,2013-02-16 15:32:00,
2013-02-16 09:42:00,17.0,-99.9,-100.00,WSW,255,5.0,10.0,-999,0.00,,,0.00,,2013-02-16 15:42:00,
2013-02-16 09:52:00,17.0,-99.9,-100.00,WSW,255,5.0,10.0,-999,0.00,,,0.00,,2013-02-16 15:52:00,
2013-02-16 10:02:00,18.0,-99.9,-100.00,West,265,3.0,7.0,-999,0.00,,,0.00,,2013-02-16 16:02:00,
2013-02-16 10:11:00,18.0,-99.9,-100.00,West,265,3.0,7.0,-999,0.00,,,0.00,,2013-02-16 16:11:00,
2013-02-16 10:22:00,18.0,-99.9,-100.00,West,265,3.0,7.0,-999,0.00,,,0.00,,2013-02-16 16:22:00,
2013-02-16 10:32:00,18.0,-99.9,-100.00,West,271,4.0,12.0,-999,0.00,,,0.00,,2013-02-16 16:32:00,
2013-02-16 10:42:00,18.0,-99.9,-100.00,West,271,4.0,12.0,-999,0.00,,,0.00,,2013-02-16 16:42:00,
2013-02-16 10:52:00,18.0,-99.9,-100.00,West,271,4.0,12.0,-999,0.00,,,0.00,,2013-02-16 16:52:00,
2013-02-16 11:01:00,20.0,-99.9,-100.00,WNW,286,6.0,13.0,-999,0.00,,,0.00,,2013-02-16 17:01:00,
2013-02-16 11:11:00,20.0,-99.9,-100.00,WNW,286,6.0,13.0,-999,0.00,,,0.00,,2013-02-16 17:11:00,
2013-02-16 11:22:00,20.0,-99.9,-100.00,WNW,286,6.0,13.0,-999,0.00,,,0.00,,2013-02-16 17:22:00,
2013-02-16 11:32:00,20.0,-99.9,-100.00,WNW,286,6.0,17.0,-999,0.00,,,0.00,,2013-02-16 17:32:00,
2013-02-16 11:42:00,20.0,-99.9,-100.00,WNW,286,6.0,17.0,-999,0.00,,,0.00,,2013-02-16 17:42:00,
2013-02-16 11:52:00,20.0,-99.9,-100.00,WNW,286,6.0,17.0,-999,0.00,,,0.00,,2013-02-16 17:52:00,
2013-02-16 12:02:00,21.0,-99.9,-100.00,West,280,7.0,14.0,-999,0.00,,,0.00,,2013-02-16 18:02:00,
2013-02-16 12:11:00,21.0,-99.9,-100.00,West,280,7.0,14.0,-999,0.00,,,0.00,,2013-02-16 18:11:00,
2013-02-16 12:22:00,21.0,-99.9,-100.00,West,280,7.0,14.0,-999,0.00,,,0.00,,2013-02-16 18:22:00,
2013-02-16 12:33:00,20.0,-99.9,-100.00,WNW,288,5.0,16.0,-999,0.00,,,0.00,,2013-02-16 18:33:00,
2013-02-16 12:42:00,20.0,-99.9,-100.00,WNW,288,5.0,16.0,-999,0.00,,,0.00,,2013-02-16 18:42:00,
2013-02-16 12:52:00,20.0,-99.9,-100.00,WNW,288,5.0,16.0,-999,0.00,,,0.00,,2013-02-16 18:52:00,
2013-02-16 13:02:00,22.0,-99.9,-100.00,WNW,292,5.0,11.0,-999,0.00,,,0.00,,2013-02-16 19:02:00,
2013-02-16 13:11:00,22.0,-99.9,-100.00,WNW,292,5.0,11.0,-999,0.00,,,0.00,,2013-02-16 19:11:00,
2013-02-16 13:22:00,22.0,-99.9,-100.00,WNW,292,5.0,11.0,-999,0.00,,,0.00,,2013-02-16 19:22:00,
2013-02-16 13:32:00,23.0,-99.9,-100.00,West,270,9.0,14.0,-999,0.00,,,0.00,,2013-02-16 19:32:00,
2013-02-16 13:42:00,23.0,-99.9,-100.00,West,270,9.0,14.0,-999,0.00,,,0.00,,2013-02-16 19:42:00,
2013-02-16 13:52:00,23.0,-99.9,-100.00,West,270,9.0,14.0,-999,0.00,,,0.00,,2013-02-16 19:52:00,
2013-02-16 14:02:00,23.0,-99.9,-100.00,WNW,294,8.0,14.0,-999,0.00,,,0.00,,2013-02-16 20:02:00,
2013-02-16 14:11:00,23.0,-99.9,-100.00,WNW,294,8.0,14.0,-999,0.00,,,0.00,,2013-02-16 20:11:00,
2013-02-16 14:22:00,23.0,-99.9,-100.00,WNW,294,8.0,14.0,-999,0.00,,,0.00,,2013-02-16 20:22:00,
2013-02-16 14:32:00,24.0,-99.9,-100.00,WNW,286,10.0,16.0,-999,0.00,,,0.00,,2013-02-16 20:32:00,
2013-02-16 14:42:00,24.0,-99.9,-100.00,WNW,286,10.0,16.0,-999,0.00,,,0.00,,2013-02-16 20:42:00,
2013-02-16 14:52:00,24.0,-99.9,-100.00,WNW,286,10.0,16.0,-999,0.00,,,0.00,,2013-02-16 20:52:00,
2013-02-16 15:02:00,24.0,-99.9,-100.00,WNW,289,4.0,9.0,-999,0.00,,,0.00,,2013-02-16 21:02:00,
2013-02-16 15:11:00,24.0,-99.9,-100.00,WNW,289,4.0,9.0,-999,0.00,,,0.00,,2013-02-16 21:11:00,
2013-02-16 15:22:00,24.0,-99.9,-100.00,WNW,289,4.0,9.0,-999,0.00,,,0.00,,2013-02-16 21:22:00,
2013-02-16 15:32:00,24.0,-99.9,-100.00,NW,309,10.0,21.0,-999,0.00,,,0.00,,2013-02-16 21:32:00,
2013-02-16 15:42:00,24.0,-99.9,-100.00,NW,309,10.0,21.0,-999,0.00,,,0.00,,2013-02-16 21:42:00,
2013-02-16 15:52:00,24.0,-99.9,-100.00,NW,309,10.0,21.0,-999,0.00,,,0.00,,2013-02-16 21:52:00,
2013-02-16 16:02:00,25.0,-99.9,-100.00,NW,306,8.0,13.0,-999,0.00,,,0.00,,2013-02-16 22:02:00,
2013-02-16 16:11:00,25.0,-99.9,-100.00,NW,306,8.0,13.0,-999,0.00,,,0.00,,2013-02-16 22:11:00,
2013-02-16 16:22:00,25.0,-99.9,-100.00,NW,306,8.0,13.0,-999,0.00,,,0.00,,2013-02-16 22:22:00,
2013-02-16 16:32:00,25.0,-99.9,-100.00,WNW,299,11.0,17.0,-999,0.00,,,0.00,,2013-02-16 22:32:00,
2013-02-16 16:42:00,25.0,-99.9,-100.00,WNW,299,11.0,17.0,-999,0.00,,,0.00,,2013-02-16 22:42:00,
2013-02-16 16:52:00,25.0,-99.9,-100.00,WNW,299,11.0,17.0,-999,0.00,,,0.00,,2013-02-16 22:52:00,
2013-02-16 17:02:00,25.0,-99.9,-100.00,NW,318,4.0,12.0,-999,0.00,,,0.00,,2013-02-16 23:02:00,
2013-02-16 17:11:00,25.0,-99.9,-100.00,NW,318,4.0,12.0,-999,0.00,,,0.00,,2013-02-16 23:11:00,
2013-02-16 17:22:00,25.0,-99.9,-100.00,NW,318,4.0,12.0,-999,0.00,,,0.00,,2013-02-16 23:22:00,
2013-02-16 17:32:00,24.0,-99.9,-100.00,NW,316,8.0,13.0,-999,0.00,,,0.00,,2013-02-16 23:32:00,
2013-02-16 17:42:00,24.0,-99.9,-100.00,NW,316,8.0,13.0,-999,0.00,,,0.00,,2013-02-16 23:42:00,
2013-02-16 17:52:00,24.0,-99.9,-100.00,NW,316,8.0,13.0,-999,0.00,,,0.00,,2013-02-16 23:52:00,
2013-02-16 18:02:00,22.0,-99.9,-100.00,NW,311,4.0,9.0,-999,0.00,,,0.00,,2013-02-17 00:02:00,
2013-02-16 18:12:00,22.0,-99.9,-100.00,NW,311,4.0,9.0,-999,0.00,,,0.00,,2013-02-17 00:12:00,
2013-02-16 18:22:00,22.0,-99.9,-100.00,NW,311,4.0,9.0,-999,0.00,,,0.00,,2013-02-17 00:22:00,
2013-02-16 18:30:00,22.0,-99.9,-100.00,NNW,332,4.0,7.0,-999,0.00,,,0.00,,2013-02-17 00:30:00,
2013-02-16 18:32:00,22.0,-99.9,-100.00,WNW,284,4.0,7.0,-999,0.00,,,0.00,,2013-02-17 00:32:00,
2013-02-16 18:42:00,22.0,-99.9,-100.00,WNW,284,4.0,7.0,-999,0.00,,,0.00,,2013-02-17 00:42:00,
2013-02-16 18:52:00,22.0,-99.9,-100.00,WNW,284,4.0,7.0,-999,0.00,,,0.00,,2013-02-17 00:52:00,
2013-02-16 19:01:00,22.0,-99.9,-100.00,NNW,332,4.0,7.0,-999,0.00,,,0.00,,2013-02-17 01:01:00,
2013-02-16 19:11:00,22.0,-99.9,-100.00,NNW,332,4.0,7.0,-999,0.00,,,0.00,,2013-02-17 01:11:00,
2013-02-16 19:22:00,22.0,-99.9,-100.00,NNW,332,4.0,7.0,-999,0.00,,,0.00,,2013-02-17 01:22:00,
2013-02-16 20:01:00,21.0,-99.9,-100.00,NNW,338,3.0,5.0,-999,0.00,,,0.00,,2013-02-17 02:01:00,
2013-02-16 20:11:00,21.0,-99.9,-100.00,NNW,338,3.0,5.0,-999,0.00,,,0.00,,2013-02-17 02:11:00,
2013-02-16 20:21:00,21.0,-99.9,-100.00,NNW,338,3.0,5.0,-999,0.00,,,0.00,,2013-02-17 02:21:00,
2013-02-16 20:32:00,21.0,-99.9,-100.00,North,10,2.0,4.0,-999,0.00,,,0.00,,2013-02-17 02:32:00,
2013-02-16 20:42:00,21.0,-99.9,-100.00,North,10,2.0,4.0,-999,0.00,,,0.00,,2013-02-17 02:42:00,
2013-02-16 20:52:00,21.0,-99.9,-100.00,North,10,2.0,4.0,-999,0.00,,,0.00,,2013-02-17 02:52:00,
2013-02-16 21:02:00,21.0,-99.9,-100.00,NNE,12,4.0,6.0,-999,0.00,,,0.00,,2013-02-17 03:02:00,
2013-02-16 21:11:00,21.0,-99.9,-100.00,NNE,12,4.0,6.0,-999,0.00,,,0.00,,2013-02-17 03:11:00,
2013-02-16 21:21:00,21.0,-99.9,-100.00,NNE,12,4.0,6.0,-999,0.00,,,0.00,,2013-02-17 03:21:00,
2013-02-16 21:32:00,20.0,-99.9,-100.00,NNE,26,5.0,7.0,-999,0.00,,,0.00,,2013-02-17 03:32:00,
2013-02-16 21:42:00,20.0,-99.9,-100.00,NNE,26,5.0,7.0,-999,0.00,,,0.00,,2013-02-17 03:42:00,
2013-02-16 21:52:00,20.0,-99.9,-100.00,NNE,26,5.0,7.0,-999,0.00,,,0.00,,2013-02-17 03:52:00,
2013-02-16 22:01:00,18.0,-99.9,-100.00,ESE,104,0.0,1.0,-999,0.00,,,0.00,,2013-02-17 04:01:00,
2013-02-16 22:11:00,18.0,-99.9,-100.00,ESE,104,0.0,1.0,-999,0.00,,,0.00,,2013-02-17 04:11:00,
2013-02-16 22:22:00,18.0,-99.9,-100.00,ESE,104,0.0,1.0,-999,0.00,,,0.00,,2013-02-17 04:22:00,
2013-02-16 22:32:00,19.0,-99.9,-100.00,East,85,2.0,3.0,-999,0.00,,,0.00,,2013-02-17 04:32:00,
2013-02-16 22:42:00,19.0,-99.9,-100.00,East,85,2.0,3.0,-999,0.00,,,0.00,,2013-02-17 04:42:00,
2013-02-16 22:52:00,19.0,-99.9,-100.00,East,85,2.0,3.0,-999,0.00,,,0.00,,2013-02-17 04:52:00,
2013-02-16 23:02:00,19.0,-99.9,-100.00,East,93,3.0,3.0,-999,0.00,,,0.00,,2013-02-17 05:02:00,
2013-02-16 23:12:00,19.0,-99.9,-100.00,East,93,3.0,3.0,-999,0.00,,,0.00,,2013-02-17 05:12:00,
2013-02-16 23:22:00,19.0,-99.9,-100.00,East,93,3.0,3.0,-999,0.00,,,0.00,,2013-02-17 05:22:00,
2013-02-16 23:33:00,19.0,-99.9,-100.00,East,83,5.0,7.0,-999,0.00,,,0.00,,2013-02-17 05:33:00,
2013-02-16 23:42:00,19.0,-99.9,-100.00,East,83,5.0,7.0,-999,0.00,,,0.00,,2013-02-17 05:42:00,
2013-02-16 23:52:00,19.0,-99.9,-100.00,East,83,5.0,7.0,-999,0.00,,,0.00,,2013-02-17 05:52:00,